Weather History for Caro, MI

Change the Weather History Date:

Saturday, October 13, 2012

  Actual Average (KMBS) Record (KMBS)
Temperature  
Mean Temperature 44 °F 51 °F  
Max Temperature 58 °F 61 °F 81 °F (2008)
Min Temperature 30 °F 41 °F 32 °F (2006)
Degree Days  
Heating Degree Days 21    
Month to date heating degree days  
Since 1 July heating degree days  
Cooling Degree Days 0    
Month to date cooling degree days  
Year to date cooling degree days  
Moisture  
Dew Point 40 °F    
Average Humidity 92    
Maximum Humidity 100    
Minimum Humidity 78    
Precipitation  
Precipitation 0.00 in 0.09 in 0.57 in (1999)
Month to date precipitation 1.20  
Year to date precipitation 25.55  
Snow  
Snow 0.00 in - - ()
Month to date snowfall  
Since 1 July snowfall  
Since 1 September snowfall  
Snow Depth -    
Sea Level Pressure  
Sea Level Pressure 30.12 in    
Wind  
Wind Speed 4 mph (SSE)    
Max Wind Speed 15 mph    
Max Gust Speed 25 mph    
Visibility 9 miles    
Events Rain    
T = Trace of Precipitation, MM = Missing Value Source: NWS Daily Summary

Daily Weather History Graph

Daily Weather History Graph

Search for Another Location

Airport:

Trip Planner

Search our weather history database for the weather conditions in past years. The results will help you decide how hot, cold, wet, or windy it might be!

Date:

Astronomy

Oct. 13, 2012 Rise Set
Actual Time 7:45 AM EDT 6:53 PM EDT
Civil Twilight 7:17 AM EDT 7:21 PM EDT
Nautical Twilight 6:44 AM EDT 7:54 PM EDT
Astronomical Twilight 6:10 AM EDT 8:27 PM EDT
Moon 5:31 AM EDT (10/13) 5:38 PM EDT (10/13)
Length of Visible Light 12h 04m
Length of Day
11h 07m
Waning Crescent, 5% of the Moon is Illuminated
Oct 13
Waning Crescent
Oct 15
New
Oct 21
First Quarter
Oct 29
Full
Nov 6
Last Quarter

Hourly Weather History & Observations

Time (EDT) Temp. Windchill Dew Point Humidity Pressure Visibility Wind Dir Wind Speed Gust Speed Precip Events Conditions
12:35 AM 30.7 °F - 30.0 °F 97% 30.37 in 10.0 mi Calm Calm - N/A   Clear
12:54 AM 32.9 °F - 30.9 °F 92% 30.37 in 10.0 mi Calm Calm - N/A   Clear
1:15 AM 33.1 °F - 30.0 °F 89% 30.36 in 10.0 mi Calm Calm - N/A   Clear
1:55 AM 34.7 °F 31.8 °F 29.1 °F 80% 30.36 in 10.0 mi ESE 3.5 mph - N/A   Clear
2:15 AM 34.9 °F 32.0 °F 28.8 °F 78% 30.35 in 10.0 mi ESE 3.5 mph - N/A   Clear
2:34 AM 33.8 °F 30.8 °F 29.1 °F 83% 30.34 in 10.0 mi SE 3.5 mph - N/A   Clear
2:55 AM 33.4 °F - 28.8 °F 83% 30.33 in 10.0 mi Calm Calm - N/A   Clear
3:15 AM 33.1 °F - 28.9 °F 85% 30.33 in 10.0 mi Calm Calm - N/A   Clear
3:34 AM 32.0 °F - 27.9 °F 85% 30.33 in 10.0 mi Calm Calm - N/A   Clear
3:55 AM 31.5 °F - 28.4 °F 88% 30.33 in 10.0 mi Calm Calm - N/A   Clear
4:15 AM 30.9 °F 27.5 °F 28.9 °F 92% 30.32 in 10.0 mi East 3.5 mph - N/A   Clear
4:34 AM 31.6 °F - 29.1 °F 90% 30.32 in 10.0 mi Calm Calm - N/A   Clear
4:55 AM 31.1 °F - 28.8 °F 91% 30.30 in 10.0 mi Calm Calm - N/A   Clear
5:15 AM 31.8 °F - 29.3 °F 90% 30.30 in 10.0 mi Calm Calm - N/A   Clear
5:35 AM 31.1 °F - 29.1 °F 92% 30.30 in 10.0 mi Calm Calm - N/A   Clear
5:55 AM 32.0 °F - 30.2 °F 93% 30.30 in 10.0 mi Calm Calm - N/A   Clear
6:14 AM 32.4 °F - 30.7 °F 94% 30.30 in 10.0 mi Calm Calm - N/A   Clear
6:55 AM 33.1 °F - 31.1 °F 92% 30.29 in 10.0 mi Calm Calm - N/A   Scattered Clouds
7:14 AM 34.5 °F - 32.0 °F 90% 30.29 in 10.0 mi Calm Calm - N/A   Scattered Clouds
7:35 AM 34.3 °F - 31.6 °F 90% 30.28 in 10.0 mi Calm Calm - N/A   Clear
7:55 AM 34.3 °F - 32.0 °F 91% 30.28 in 10.0 mi Calm Calm - N/A   Clear
8:14 AM 35.6 °F 31.7 °F 32.0 °F 87% 30.27 in 10.0 mi ESE 4.6 mph - N/A   Clear
8:35 AM 36.7 °F 34.1 °F 33.3 °F 87% 30.26 in 10.0 mi SSE 3.5 mph - N/A   Clear
8:55 AM 38.3 °F 35.9 °F 34.0 °F 84% 30.27 in 10.0 mi ESE 3.5 mph - N/A   Scattered Clouds
9:14 AM 39.2 °F 37.0 °F 34.7 °F 84% 30.28 in 10.0 mi SSE 3.5 mph - N/A   Mostly Cloudy
9:55 AM 41.2 °F 36.6 °F 36.5 °F 83% 30.26 in 10.0 mi SSE 6.9 mph - N/A   Overcast
10:35 AM 41.2 °F 35.5 °F 37.8 °F 88% 30.25 in 10.0 mi SSE 9.2 mph - N/A Rain Rain
10:55 AM 41.2 °F 37.3 °F 38.8 °F 91% 30.23 in 10.0 mi SSE 5.8 mph - N/A Rain Light Rain
11:15 AM 41.9 °F 37.5 °F 39.7 °F 92% 30.22 in 10.0 mi SSE 6.9 mph - N/A Rain Light Rain
11:35 AM 43.0 °F 39.5 °F 40.5 °F 91% 30.20 in 10.0 mi SE 5.8 mph - N/A Rain Light Rain
11:55 AM 43.5 °F 38.9 °F 41.0 °F 91% 30.18 in 10.0 mi SE 8.1 mph - N/A Rain Light Rain
12:15 PM 43.7 °F 39.7 °F 41.5 °F 92% 30.16 in 10.0 mi SSE 6.9 mph - N/A Rain Light Rain
12:34 PM 43.9 °F 38.8 °F 41.9 °F 93% 30.15 in 10.0 mi SSE 9.2 mph - N/A Rain Light Rain
12:55 PM 44.2 °F 39.7 °F 42.8 °F 95% 30.12 in 10.0 mi SSE 8.1 mph - N/A Rain Light Rain
1:15 PM 44.6 °F 39.7 °F 43.2 °F 95% 30.11 in 10.0 mi SSE 9.2 mph - N/A Rain Rain
1:34 PM 44.8 °F 39.9 °F 43.5 °F 95% 30.09 in 10.0 mi SSE 9.2 mph 17.3 mph N/A Rain Light Rain
1:55 PM 44.8 °F 39.9 °F 43.7 °F 96% 30.07 in 10.0 mi SSE 9.2 mph - N/A   Drizzle
2:15 PM 44.8 °F 39.4 °F 43.9 °F 97% 30.04 in 7.0 mi SSE 10.4 mph 16.1 mph N/A Rain Rain
2:34 PM 45.0 °F 39.7 °F 44.4 °F 98% 30.02 in 7.0 mi SE 10.4 mph 18.4 mph N/A Rain Rain
2:55 PM 45.5 °F 40.3 °F 44.8 °F 97% 30.00 in 10.0 mi SSE 10.4 mph - N/A Rain Light Rain
3:15 PM 46.6 °F - 45.9 °F 97% 29.98 in 10.0 mi SSE 13.8 mph 18.4 mph N/A   Overcast
3:34 PM 47.7 °F - 45.9 °F 93% 29.96 in 10.0 mi SSE 15.0 mph 25.3 mph N/A   Overcast
3:55 PM 48.2 °F - 45.1 °F 89% 29.96 in 10.0 mi SSE 13.8 mph 18.4 mph N/A   Overcast
4:15 PM 48.6 °F - 45.5 °F 89% 29.94 in 10.0 mi SSE 12.7 mph 17.3 mph N/A   Drizzle
4:34 PM 48.4 °F - 45.9 °F 91% 29.92 in 10.0 mi SSE 11.5 mph 18.4 mph N/A Rain Rain
4:55 PM 48.4 °F - 46.2 °F 92% 29.91 in 7.0 mi SSE 12.7 mph 20.7 mph N/A Rain Light Rain
5:14 PM 48.4 °F - 46.6 °F 93% 29.92 in 7.0 mi South 11.5 mph 16.1 mph N/A Rain Rain
5:35 PM 48.4 °F - 46.9 °F 95% 29.92 in 7.0 mi South 10.4 mph - N/A Rain Light Rain
5:55 PM 48.4 °F - 47.3 °F 96% 29.91 in 4.0 mi South 11.5 mph - N/A Rain Rain
6:14 PM 48.7 °F - 47.8 °F 97% 29.90 in 5.0 mi South 12.7 mph 18.4 mph N/A Rain Light Rain
6:55 PM 50.0 °F - 49.1 °F 97% 29.89 in 7.0 mi South 12.7 mph - N/A Rain Rain
7:14 PM 50.2 °F - 49.5 °F 97% 29.89 in 5.0 mi South 10.4 mph 19.6 mph N/A   Heavy Drizzle
7:35 PM 50.7 °F - 50.0 °F 97% 29.87 in 4.0 mi South 13.8 mph 23.0 mph N/A Rain Rain
7:55 PM 51.1 °F - 50.5 °F 98% 29.86 in 7.0 mi South 10.4 mph 17.3 mph N/A   Drizzle
8:35 PM 52.7 °F - 52.2 °F 98% 29.84 in 7.0 mi South 9.2 mph 16.1 mph N/A   Light Drizzle
8:55 PM 53.1 °F - 52.7 °F 99% 29.84 in 7.0 mi SSW 9.2 mph - N/A   Drizzle
9:55 PM 54.5 °F - 54.5 °F 100% 29.84 in 5.0 mi SSW 9.2 mph - N/A   Overcast
10:14 PM 55.4 °F - 55.2 °F 99% 29.84 in 3.0 mi SSW 9.2 mph - N/A   Overcast
10:35 PM 56.7 °F - 56.7 °F 100% 29.83 in 5.0 mi SW 11.5 mph 18.4 mph N/A   Overcast
10:54 PM 58.1 °F - 58.1 °F 100% 29.83 in 1.5 mi SSW 15.0 mph 19.6 mph N/A Rain Rain
11:15 PM 58.6 °F - 58.6 °F 100% 29.83 in 2.5 mi SSW 15.0 mph 18.4 mph N/A Rain Rain